Regional Weather Roundup
Issued by NWS

Home | Current Version | Previous Version | Graphics & Text | Print | Product List | Glossary On
Versions: 1 2 3 4 5 6 7 8 9 10 11 12 13 14 15 16 17 18 19 20 21 22 23 24 25 26 27 28 29 30 31 32 33 34 35 36 37 38 39 40 41 42 43 44 45 46 47 48 49 50
000
ASUS43 KMKX 251410
RWRWI

WISCONSIN REGIONAL WEATHER ROUNDUP
NATIONAL WEATHER SERVICE MILWAUKEE/SULLIVAN WI
900 AM CDT FRI JUL 25 2014

NOTE: "FAIR" INDICATES FEW OR NO CLOUDS BELOW 12,000 FEET WITH NO
SIGNIFICANT WEATHER AND/OR OBSTRUCTIONS TO VISIBILITY.

WIZ001-002-006>008-014>016-023>028-251500-
NORTHWEST WISCONSIN

CITY           SKY/WX    TMP DP  RH WIND       PRES   REMARKS
SUPERIOR ARPT  CLOUDY    62  57  85 N5        29.83R
ASHLAND        CLOUDY    68  62  81 VRB3      29.83F
HAYWARD        CLOUDY    64  60  87 SE8       29.83F
SIREN          CLOUDY    65  63  93 SW8       29.81R
RICE LAKE      CLOUDY    65  60  84 CALM      29.90F
LADYSMITH      CLOUDY    65  59  82 S9        29.91R
EAU CLAIRE     LGT RAIN  64  62  93 S9        29.89S
MENOMONIE      LGT RAIN  64  62  94 SE3       29.88S
NEW RICHMOND   CLOUDY    65  64  96 SW8       29.87F
OSCEOLA        CLOUDY    67  66  97 S8        29.87F
$$

WIZ003>005-009-010-017-018-251500-
NORTH CENTRAL WISCONSIN

CITY           SKY/WX    TMP DP  RH WIND       PRES   REMARKS
WOODRUFF       CLOUDY    63  60  89 S9        29.90F
RHINELANDER    CLOUDY    62  59  90 S3        29.93F
EAGLE RIVER    LGT RAIN  62  61  96 S3        29.91F
LAND O LAKES   PTSUNNY   66  60  81 S8        29.92F
PHILLIPS       CLOUDY    64  59  83 S8        29.87F
TOMAHAWK       CLOUDY    62  59  91 CALM      29.91F
MEDFORD        CLOUDY    62  58  88 S8        29.90F
MERRILL        CLOUDY    63  60  90 S6        29.91F
$$

WIZ029-030-035-036-043>047-251500-
CENTRAL WISCONSIN

CITY           SKY/WX    TMP DP  RH WIND       PRES   REMARKS
WAUSAU         CLOUDY    63  59  87 SE9       29.91F
MOSINEE        PTSUNNY   63  61  94 S5        29.93F
MARSHFIELD     CLOUDY    65  58  78 SE10      29.89F
STEVENS POINT  CLOUDY    62  56  78 S9        29.93F
WAUPACA        CLOUDY    65  59  81 S7        29.95F
WAUTOMA        CLOUDY    64  60  87 S7        29.95F
WISC RAPIDS    CLOUDY    65  58  78 SE10      29.91F
CAMP DOUGLAS   MOSUNNY   64  59  82 SE9G18    29.88F
$$

WIZ011>013-019>022-031-037>040-048>050-251500-
NORTHEAST WISCONSIN

CITY           SKY/WX    TMP DP  RH WIND       PRES   REMARKS
ANTIGO         CLOUDY    62  59  91 S9        29.94F
STURGEON BAY   CLOUDY    66  54  63 SW10      29.97F
GREEN BAY      CLOUDY    66  57  72 SW10      29.98F
MANITOWOC      PTSUNNY   70  55  59 W10       30.00F
APPLETON       PTSUNNY   63  55  77 SW8       29.99F
CLINTONVILLE   LGT RAIN  63  55  77 SW5       29.97F
OSHKOSH        CLOUDY    63  55  75 SW10      29.97F
$$

WIZ032>034-041-042-053>061-251500-
SOUTHWEST WISCONSIN

CITY           SKY/WX    TMP DP  RH WIND       PRES   REMARKS
LA CROSSE      CLOUDY    66  61  84 S7        29.89R
SPARTA         LGT RAIN  62  58  87 SW5       29.89R
VIROQUA        FAIR      62  61  96 S20G29    29.88R
BOSCOBEL       CLOUDY    66  57  72 S14G26    29.88F
PRAIRIE DU CHI LGT RAIN  63  57  82 SE9G17    29.93F
PLATTEVILLE    FAIR      64  59  85 S15       30.00S
$$

WIZ056-057-062-063-064-067-068-251500-
SOUTH CENTRAL WISCONSIN

CITY           SKY/WX    TMP DP  RH WIND       PRES   REMARKS
BARABOO/DELLS  CLOUDY    63  54  73 S12       29.93F
LONE ROCK      CLOUDY    68  59  73 S10       29.94F
WATERTOWN      CLOUDY    64  55  72 S5        30.01S
MADISON        CLOUDY    66  56  70 S8        29.97F
MIDDLETON      PTSUNNY   65  55  70 SW7       29.98F
MONROE         CLOUDY    63  59  88 S9        30.00F
JANESVILLE     PTSUNNY   66  54  63 S9        30.00F
$$

WIZ051-052-058>065-066-070>072-251500-
SOUTHEAST WISCONSIN

CITY           SKY/WX    TMP DP  RH WIND       PRES   REMARKS
MILWAUKEE      CLOUDY    64  51  62 SW10      30.02F
WAUKESHA       MOSUNNY   63  52  67 S3        30.03F
MILWAUKEE/TIMM MOSUNNY   64  50  59 SW8       30.03F
RACINE         CLOUDY    64  52  64 SW8       30.04F
BURLINGTON     CLOUDY    61  53  75 S7        30.01F
KENOSHA        CLOUDY    64  53  67 SW10      30.02F
FOND DU LAC    CLOUDY    65  53  65 S13       29.99F
SHEBOYGAN      CLOUDY    66  54  65 SW12      30.01F
WEST BEND      CLOUDY    64  52  63 SW6       30.01F
JUNEAU         CLOUDY    64  52  65 S8        30.02F
$$

LSZ147-162-251500-
LAKE SUPERIOR

STATION/POSITION TIME  TEMP    WIND        PRES    WAVE
                       AIR SEA DIR/SP/G            HT/PER
                 (UTC) (F)     (DEG/KT/KT) (MB)    (FT/S)
$$

LMZ867-665-643>646-251500-
LAKE MICHIGAN

STATION/POSITION TIME  TEMP    WIND        PRES    WAVE
                       AIR SEA DIR/SP/G            HT/PER
                 (UTC) (F)     (DEG/KT/KT) (MB)    (FT/S)
$$

TC  - TEMPERATURE IN CELSIUS
VSB - VISIBILITY IN STATUTE MILES
WCI - WIND CHILL INDEX
HX  - HEAT INDEX




USA.gov is the U.S. government's official web portal to all federal, state and local government web resources and services.